Simultaneous Nadir Overpasses (SNOs) Predictions

Prediction of SNOs between METOP-A and NOAA-19 Satellite Orbit:

Table of predicted SNOs for the next 14.0 days since TLE Epoch: 4/24/2013
Index Date (METOP-A) Time (METOP-A) Lat,Lon (METOP-A) SZA (METOP-A ) Date (NOAA-19) Time (NOAA-19) Lat,Lon (NOAA-19) SZA (NOAA-19 ) Distance(km) Time Diff (sec)
1 04/29/2013 10:28:23 -73.83,-163.17 120.76 04/29/2013 10:27:13 -73.87,-165.06 120.64 58.57 70
2 04/29/2013 11:19:11 73.44, 3.25 58.87 04/29/2013 11:18:11 73.41, 3.26 58.85 3.11 60
3 04/29/2013 12:09:53 -73.42, 170.52 121.17 04/29/2013 12:09:08 -73.40, 170.55 121.18 1.88 45
4 04/29/2013 13:00:34 73.37, -22.25 58.79 04/29/2013 13:00:15 73.38, -22.18 58.80 2.40 19
5 04/29/2013 13:51:15 -73.40, 145.14 121.21 04/29/2013 13:51:12 -73.37, 145.11 121.23 2.91 3
6
